{"data":{"norad_id":54198,"intl_designator":"2022-141AT","name":"STARLINK-5246","alt_names":[],"object_type":"PAYLOAD","status":"ACTIVE","operator":null,"country":"US","launch_date":"2022-10-28","launch_site_code":"AFWTR","launch_vehicle":null,"mission":null,"orbit_class":"UNKNOWN","rcs_meters":null,"size_class":null,"mass_kg":null,"dimensions":null,"purposes":["comms"],"wikipedia_slug":null,"has_3d_model":false,"image_url":null,"decayed_at":null,"tle_current":{"epoch":"2026-05-24T22:56:04.344576Z","epoch_age_seconds":78893,"freshness":"FRESH","line1":"1 54198U 22141AT  26144.95560584 -.00002087  00000+0 -11305-3 0  9997","line2":"2 54198  53.2134  11.5949 0001170 105.4724 254.6398 15.08851939197517","mean_motion":15.08851939,"eccentricity":0.000117,"inclination_deg":53.2134,"raan_deg":11.5949,"arg_perigee_deg":105.4724,"mean_anomaly_deg":254.6398,"bstar":-0.00011305,"rev_number":19751,"period_min":95.436799514893,"perigee_km":538.89750872212,"apogee_km":540.51628419389,"semimajor_km":6917.843896458,"source":"CELESTRAK","updated_at":"2026-05-25T13:38:17.684856Z"}}}